#timestamp,LO_Frequency,Hit,StdDev 
1516309215.6,286046999.3,N
1516309235.4,286046996.9,N
1516309255.3,286046999.2,N
1516309275.1,286046997.1,N
1516309295.9,286046997.9,N
1516309315.7,286046996.8,N
1516309335.5,286046996.8,N
1516309355.4,286046998.2,N
1516309375.2,286047003.2,N
1516309395.1,286047006.8,Y
1516309396.0,286047006.8,P
1516309415.8,286047007.9,N
1516309435.6,286047009.1,N
1516309455.5,286047007.9,N
1516309475.3,286047006.1,N
1516309495.2,286047009.0,N
1516309515.9,286047007.9,N
1516309535.7,286047006.8,N
1516309555.6,286047005.4,N
1516309575.4,286047005.2,N
1516309595.2,286047004.1,N
1516309615.1,286047005.7,N
1516309616.0,286047005.7,N
1516309635.8,286047005.7,N
1516309655.7,286047007.9,Y
1516309675.5,286047004.1,P
1516309695.3,286047000.0,N
1516309715.2,286047001.0,N
1516309735.0,286047000.4,N
1516309735.9,286047000.4,N
1516309755.7,286047002.3,N
1516309775.6,286047005.3,N
1516309795.4,286047001.5,N
1516309815.3,286047000.1,N
1516309835.1,286047000.5,N
1516309836.0,286047000.5,N
1516309855.8,286047001.1,N
1516309875.7,286047011.9,Y
1516309895.5,286046998.3,P
1516309915.4,286046998.4,N
1516309935.2,286046996.7,N
1516309955.0,286046996.7,N
1516309955.9,286046996.7,N
1516309975.8,286046997.4,N
1516309995.6,286046995.4,N
1516310015.5,286046995.8,N
1516310035.3,286046997.6,N
1516310055.1,286046997.4,N
1516310075.9,286046997.6,N
1516310095.7,286046995.3,Y
1516310115.5,286046999.0,P
1516310135.4,286047001.2,N
1516310155.2,286046999.0,N
1516310175.1,286046998.3,N
1516310176.0,286046998.3,N
1516310195.8,286046999.3,N
1516310215.6,286046996.8,N
1516310235.5,286046995.4,Y
1516310255.3,286046996.7,P
1516310275.2,286046997.9,N
1516310295.9,286046997.2,P
1516310315.7,286046996.7,Y
1516310335.6,286046999.9,P
1516310355.4,286047000.3,N
1516310375.2,286046998.1,N
1516310395.1,286047000.3,N
1516310396.0,286047000.3,N
1516310415.8,286046998.3,N
1516310435.7,286046996.9,N
1516310455.5,286046997.1,N
1516310475.3,286046996.6,N
1516310495.2,286046999.1,N
1516310515.0,286046999.3,N
1516310515.9,286046999.3,N
1516310535.7,286046996.5,N
1516310555.6,286046997.4,N
1516310575.4,286046999.0,N
1516310595.3,286047002.6,N
1516310615.1,286047003.7,N
1516310616.0,286047003.7,N
1516310635.8,286047001.6,N
1516310655.7,286047004.0,N
1516310675.5,286047001.5,N
1516310695.3,286047000.2,N
1516310715.2,286046998.6,N
1516310735.0,286046998.8,N
1516310735.9,286046998.8,N
1516310755.8,286046999.0,N
1516310775.6,286046998.8,N
1516310795.4,286047001.1,N
1516310815.3,286046999.9,N
1516310835.1,286047000.0,N
1516310855.9,286047000.2,N
1516310875.7,286047001.6,N
1516310895.5,286047002.2,N
1516310915.4,286047000.5,N
1516310935.2,286046998.6,N
1516310955.0,286046998.7,N
1516310955.9,286046998.7,N
1516310975.8,286046999.1,N
1516310995.6,286046999.6,N
1516311015.5,286046997.2,N
1516311035.3,286046996.6,N
1516311055.1,286046996.5,N
1516311075.9,286046999.1,N
1516311095.7,286046997.4,N
1516311115.6,286046994.9,N
1516311135.4,286046995.1,N
1516311155.2,286046995.9,N
1516311175.1,286046997.5,N
1516311176.0,286046997.5,N
1516311195.8,286046998.8,N
1516311215.6,286046999.7,N
1516311235.5,286047002.5,N
1516311255.3,286047000.4,N
1516311275.2,286046999.1,N
1516311295.9,286046997.5,N
1516311315.7,286046997.7,N
1516311335.6,286046995.8,N
1516311355.4,286046994.1,Y
1516311375.3,286046998.0,P
1516311395.1,286046995.1,P
1516311396.0,286046995.1,P
1516311415.8,286046997.1,N
1516311435.7,286047001.2,N
1516311455.5,286046998.1,N
1516311475.4,286046998.9,N
1516311495.2,286046999.2,N
1516311515.0,286046997.3,N
1516311515.9,286046997.3,N
1516311535.8,286046995.1,N
1516311555.6,286046997.2,N
1516311575.4,286046995.1,N
1516311595.3,286046996.2,N
1516311615.1,286046993.3,Y
1516311635.9,286046998.4,P
1516311655.7,286046996.8,P
1516311675.5,286046999.2,N
1516311695.4,286046996.7,Y
1516311715.2,286046998.1,P
1516311735.1,286046999.4,P
1516311736.0,286046999.4,N
1516311755.8,286046999.3,N
1516311775.6,286046999.3,N
1516311795.5,286046998.4,N
1516311815.3,286046998.4,N
1516311835.1,286046996.8,Y
1516311855.9,286047000.0,P
1516311875.7,286047000.7,N
1516311895.6,286047000.4,N
1516311915.4,286047000.5,N
1516311935.2,286047000.8,N
1516311955.1,286047000.9,N
1516311956.0,286047000.9,N
1516311975.8,286047000.8,N
1516311995.7,286046999.2,N
1516312015.5,286046998.7,N
1516312035.3,286046998.4,N
1516312055.2,286046997.0,Y
1516312075.0,286046996.8,P
1516312075.9,286046996.8,N
1516312095.8,286046997.0,N
1516312115.6,286046997.1,N
1516312135.4,286046996.9,N
1516312155.3,286046997.8,N
1516312175.1,286046997.3,N
1516312195.8,286046996.5,Y
1516312215.7,286046999.7,P
1516312235.5,286047002.8,N
1516312255.4,286047000.1,N
1516312275.2,286047000.3,N
1516312295.0,286047000.6,N
1516312295.9,286047000.6,N
1516312315.8,286047000.3,N
1516312335.6,286047000.0,N
1516312355.4,286047000.9,N
1516312375.3,286046999.0,N
1516312395.1,286046998.1,N
1516312415.9,286046998.2,N
1516312435.7,286047000.7,N
1516312455.5,286046998.6,N
1516312475.4,286047000.7,N
1516312495.2,286046998.3,N
1516312515.0,286047000.8,N
1516312516.0,286047000.8,N
1516312535.8,286047001.1,N
1516312555.6,286047001.1,N
1516312575.5,286046999.8,N
1516312595.3,286047000.2,N
1516312615.1,286046999.7,N
1516312635.9,286047001.1,N
1516312655.7,286047000.2,N
1516312675.6,286047001.0,N
1516312695.4,286047000.3,N
1516312715.2,286046999.9,N
1516312735.1,286047000.0,N
1516312736.0,286047000.0,N
1516312755.8,286047002.2,N
1516312775.6,286046999.8,N
1516312795.5,286047002.5,N
